Home   Weather   Røst   Past weeks
Flag for Norway

Past Weather in Røst, Norway — Yesterday and Last 2 Weeks

Now
52 °F

Cool.


Feels Like: 50 °F
Forecast: 59 / 54 °F
Wind: 6 mph from North

Location: Rost Flyplass

Current Time: Jul 20, 2019 at 10:05:45 pm

Latest Report: Jul 20, 2019 at 9:00 pm


Visibility: N/A

Pressure: 29.93 "Hg

Humidity: 96%

Dew Point: 51 °F

Location of RøstLocation

Past Weather in Røst — Graph

°F

Røst Temperature Yesterday

Maximum temperature yesterday: 63 °F (at 7:00 pm)
Minimum temperature yesterday: 52 °F (at 12:00 am)
Average temperature yesterday: 58 °F

High & Low Weather Summary for the Past Weeks

 TemperatureHumidityPressure
High63 °F (Jul 19, 7:00 pm)100% (Jul 9, 3:00 am)30.08 "Hg (Jul 9, 3:00 am)
Low47 °F (Jul 12, 4:00 am)67% (Jul 19, 7:00 pm)29.67 "Hg (Jul 6, 11:00 pm)
Average51 °F87%29.94 "Hg
* Reported Jul 5 8:00 pm — Jul 20 8:00 pm, Røst. Weather by CustomWeather, © 2019

Note: Actual official high and low records may vary slightly from our data, if they occured in-between our weather recording intervals... More about our weather records

Advertising

Røst Weather History for the Previous 24 Hours

Scroll right to see more
 ConditionsComfort  
Time TempWeatherWind HumidityBarometerVisibility
8:00 pm
Sat, Jul 20
53 °FCool.6 mph94%29.93 "HgN/A
7:00 pm53 °FCool.5 mph93%29.94 "HgN/A
6:00 pm53 °FCool.5 mph92%29.95 "HgN/A
5:00 pm53 °FCool.5 mph93%29.95 "HgN/A
4:00 pm54 °FCool.5 mph93%29.96 "HgN/A
3:00 pm55 °FCool.5 mph90%29.95 "HgN/A
2:00 pm54 °FCool.3 mph92%29.96 "HgN/A
1:00 pm54 °FCool.3 mph96%29.95 "HgN/A
12:00 pm53 °FCool.3 mph97%29.94 "HgN/A
11:00 am53 °FCool.3 mph96%29.93 "HgN/A
10:00 am53 °FCool.5 mph95%29.92 "HgN/A
9:00 am53 °FCool.6 mph97%29.91 "HgN/A
8:00 am54 °FCool.3 mph97%29.90 "HgN/A
7:00 am52 °FCool.5 mph98%29.89 "HgN/A
6:00 am52 °FCool.5 mph99%29.88 "HgN/A
5:00 am53 °FCool.6 mph98%29.87 "HgN/A
4:00 am52 °FCool.7 mph98%29.86 "HgN/A
3:00 am56 °FCool.7 mph93%29.85 "HgN/A
2:00 am55 °FCool.2 mph91%29.84 "HgN/A
1:00 am56 °FCool.2 mph87%29.83 "HgN/A
12:00 am57 °FCool.2 mph84%29.83 "HgN/A
11:00 pm
Fri, Jul 19
59 °FCool.3 mph78%29.82 "HgN/A
10:00 pm61 °FCool.5 mph70%29.82 "HgN/A
Weather by CustomWeather, © 2019

See weather overview